This demonstration page uses our WeatherBlox Daily Observations layout. Learn more.

Left ArrowRight Arrow

Hourly Observations for May 26, 2021

Temp ( °F °C ) Dew Point ( °F °C ) Humidity (%) Winds ( mph kmh ) Pressure ( in mb ) Visibility ( mi km ) Precip ( " mm )
12:53 am 00:53 Clear 64 17.8 39 3.9 40 40 NNW 5 7 29.99 1016 10 16 0.00 0.00
1:53 am 01:53 Clear 60 15.6 40 4.4 47 47 N 3 6 29.99 1016 10 16 0.00 0.00
2:53 am 02:53 Clear 64 17.8 40 4.4 41 41 NNW 6 9 30.00 1016 10 16 0.00 0.00
3:53 am 03:53 Clear 64 17.8 40 4.4 41 41 NNW 7 11 30.00 1016 10 16 0.00 0.00
4:53 am 04:53 Clear 64 17.8 40 4.4 41 41 NNW 7 11 29.99 1016 10 16 0.00 0.00
5:53 am 05:53 Sunny 65 18.3 39 3.9 39 39 NNW 9 15 29.99 1016 10 16 0.00 0.00
6:53 am 06:53 Sunny 65 18.3 39 3.9 39 39 NNW 6 9 30.01 1016 10 16 0.00 0.00
7:53 am 07:53 Sunny 69 20.6 39 3.9 33 33 N 8 13 30.00 1016 10 16 0.00 0.00
8:53 am 08:53 Sunny 73 22.8 39 3.9 29 29 NNW 10 17 30.00 1016 10 16 0.00 0.00
9:53 am 09:53 Sunny 76 24.4 39 3.9 26 26 N 10 17 30.00 1016 10 16 0.00 0.00
10:53 am 10:53 Sunny 80 26.7 39 3.9 23 23 undefined N/A 29.99 1016 10 16 0.00 0.00
11:53 am 11:53 Sunny 83 28.3 34 1.1 17 17 VRB 7 11 29.98 1015 10 16 0.00 0.00
12:53 pm 12:53 Sunny 85 29.4 32 0 15 15 N 7 11 29.96 1015 10 16 0.00 0.00
1:53 pm 13:53 Sunny 87 30.6 27 -2.8 11 11 N 6 9 29.94 1014 10 16 0.00 0.00
2:53 pm 14:53 Sunny 89 31.7 15 -9.4 6 6 VRB 3 6 29.92 1013 10 16 0.00 0.00
3:53 pm 15:53 Sunny 89 31.7 19 -7.2 7 7 SSE 9 15 29.89 1012 10 16 0.00 0.00
4:53 pm 16:53 Sunny 88 31.1 16 -8.9 7 7 SSW 6 9 29.88 1012 10 16 0.00 0.00
5:53 pm 17:53 Sunny 88 31.1 25 -3.9 10 10 S 5 7 29.88 1012 10 16 0.00 0.00
6:53 pm 18:53 Sunny 89 31.7 27 -2.8 11 11 VRB 5 7 29.86 1011 10 16 0.00 0.00
7:53 pm 19:53 Sunny 85 29.4 31 -0.6 14 14 SSE 9 15 29.87 1012 10 16 0.00 0.00
8:53 pm 20:53 Clear 79 26.1 26 -3.3 14 14 S 6 9 29.89 1012 10 16 0.00 0.00
9:53 pm 21:53 Clear 75 23.9 27 -2.8 17 17 W 7 11 29.92 1013 10 16 0.00 0.00
10:53 pm 22:53 Clear 71 21.7 30 -1.1 22 22 Calm 29.93 1014 10 16 0.00 0.00
11:53 pm 23:53 Clear 67 19.4 33 0.6 28 28 Calm 29.95 1014 10 16 0.00 0.00

Powered by AerisWeather